Location: Bazugues
(43.4465°N, 0.3432°E)
Time: 08:29:36
(UTC+00:00)

SKYMED 2 - Pass Details

Date: 12 January 2026
Orbit: 622 x 624 km, 97.9° (Epoch: 17 February)

Event Time Altitude Azimuth Distance (km) Brightness Sun altitude
Exits shadow 18:32:29 - 6° (N) 2,592 6.6 -19.1°
Reaches altitude 10° 18:33:57 10° 2° (N) 2,002 6.0 -19.4°
Maximum altitude 18:38:09 49° 288° (WNW) 802 4.4 -20.1°
Drops below altitude 10° 18:42:19 10° 213° (SSW) 1,986 6.7 -20.9°
Sets 18:44:33 0° 208° (SSW) 2,887 7.5 -21.3°
